Weather History for Jackson, WY

Change the Weather History Date:

Monday, August 19, 2013

  Actual Average Record
Temperature  
Mean Temperature 66 °F -  
Max Temperature 87 °F 76 °F 91 °F (1986)
Min Temperature 44 °F 39 °F 27 °F (1987)
Growing Degree Days 16 (Base 50)    
Moisture  
Dew Point 33 °F    
Average Humidity 42    
Maximum Humidity 71    
Minimum Humidity 11    
Precipitation  
Precipitation 0.00 in - - ()
Sea Level Pressure  
Sea Level Pressure 30.24 in    
Wind  
Wind Speed 6 mph (NNW)    
Max Wind Speed 17 mph    
Max Gust Speed 32 mph    
Visibility 10 miles    
Events      
Averages and records for this station are not official NWS values.
T = Trace of Precipitation, MM = Missing Value Source: NWS Daily Summary

Daily Weather History Graph

Daily Weather History Graph

Search for Another Location

Airport:

Trip Planner

Search our weather history database for the weather conditions in past years. The results will help you decide how hot, cold, wet, or windy it might be!

Date:

Astronomy

Aug. 19, 2013 Rise Set
Actual Time 6:32 AM MDT 8:19 PM MDT
Civil Twilight 6:01 AM MDT 8:50 PM MDT
Nautical Twilight 5:24 AM MDT 9:27 PM MDT
Astronomical Twilight 4:44 AM MDT 10:07 PM MDT
Moon 7:13 PM MDT (8/19) 4:54 AM MDT (8/19)
Length of Visible Light 14h 48m
Length of Day
13h 47m
Waxing Gibbous, 97% of the Moon is Illuminated
Aug 19
Waxing Gibbous
Aug 20
Full
Aug 28
Last Quarter
Sep 5
New
Sep 12
First Quarter

Hourly Weather History & Observations

Time (MDT) Temp. Windchill Dew Point Humidity Pressure Visibility Wind Dir Wind Speed Gust Speed Precip Events Conditions
12:15 AM 51.8 °F - 33.8 °F 50% 30.25 in 10.0 mi North 6.9 mph - N/A   Clear
12:35 AM 53.6 °F - 33.8 °F 47% 30.25 in 10.0 mi North 8.1 mph - N/A   Clear
12:55 AM 51.8 °F - 33.8 °F 50% 30.25 in 10.0 mi North 8.1 mph - N/A   Clear
1:15 AM 51.8 °F - 35.6 °F 54% 30.26 in 10.0 mi North 8.1 mph - N/A   Clear
1:35 AM 50.0 °F - 33.8 °F 54% 30.25 in 10.0 mi North 6.9 mph - N/A   Clear
1:55 AM 50.0 °F - 35.6 °F 58% 30.25 in 10.0 mi North 5.8 mph - N/A   Clear
2:15 AM 48.2 °F - 33.8 °F 58% 30.25 in 10.0 mi North 6.9 mph - N/A   Clear
2:35 AM 48.2 °F - 33.8 °F 58% 30.25 in 10.0 mi North 9.2 mph - N/A   Clear
2:55 AM 48.2 °F - 33.8 °F 58% 30.25 in 10.0 mi North 9.2 mph - N/A   Clear
3:15 AM 48.2 °F - 33.8 °F 58% 30.25 in 10.0 mi North 5.8 mph - N/A   Clear
3:35 AM 46.4 °F 42.4 °F 33.8 °F 62% 30.25 in 10.0 mi North 8.1 mph - N/A   Clear
3:55 AM 46.4 °F 45.2 °F 33.8 °F 62% 30.25 in 10.0 mi NNE 3.5 mph - N/A   Clear
4:15 AM 46.4 °F 45.2 °F 35.6 °F 66% 30.26 in 10.0 mi NNE 3.5 mph - N/A   Clear
4:35 AM 46.4 °F 45.2 °F 33.8 °F 62% 30.26 in 10.0 mi North 3.5 mph - N/A   Clear
4:56 AM 46.4 °F 45.2 °F 33.8 °F 62% 30.26 in 10.0 mi NE 3.5 mph - N/A   Clear
5:15 AM 44.6 °F 42.2 °F 35.6 °F 71% 30.26 in 10.0 mi NNE 4.6 mph - N/A   Clear
5:35 AM 44.6 °F 40.2 °F 33.8 °F 66% 30.26 in 10.0 mi North 8.1 mph - N/A   Clear
5:55 AM 44.6 °F 40.7 °F 35.6 °F 71% 30.27 in 10.0 mi North 6.9 mph - N/A   Clear
6:35 AM 44.6 °F 41.4 °F 35.6 °F 71% 30.28 in 10.0 mi North 5.8 mph - N/A   Clear
6:51 AM 46.4 °F - 35.6 °F 66% 30.28 in 10.0 mi Calm Calm - N/A   Clear
7:56 AM 50.0 °F - 35.6 °F 58% 30.29 in 10.0 mi North 6.9 mph - N/A   Clear
8:55 AM 57.2 °F - 35.6 °F 44% 30.30 in 10.0 mi Calm Calm - N/A   Smoke
9:55 AM 62.6 °F - 35.6 °F 37% 30.29 in 10.0 mi Calm Calm - N/A   Smoke
10:51 AM 68.0 °F - 33.8 °F 28% 30.29 in 10.0 mi Calm Calm - N/A   Smoke
11:51 AM 77.0 °F - 33.8 °F 21% 30.27 in 10.0 mi SSE 5.8 mph - N/A   Smoke
12:53 PM 82.4 °F - 30.2 °F 15% 30.26 in 10.0 mi SSW 9.2 mph - N/A   Smoke
1:52 PM 84.2 °F - 30.2 °F 14% 30.23 in 10.0 mi SW 8.1 mph - N/A   Smoke
2:52 PM 84.2 °F - 28.4 °F 13% 30.22 in 10.0 mi WSW 12.7 mph 20.7 mph N/A   Smoke
3:53 PM 87.8 °F - 26.6 °F 11% 30.20 in 10.0 mi SW 12.7 mph 32.2 mph N/A   Smoke
4:52 PM 87.8 °F - 26.6 °F 11% 30.19 in 10.0 mi SW 8.1 mph 21.9 mph N/A   Smoke
5:52 PM 86.0 °F - 26.6 °F 12% 30.17 in 10.0 mi WSW 17.3 mph 24.2 mph N/A   Clear
6:54 PM 82.4 °F - 24.8 °F 12% 30.17 in 10.0 mi SSW 13.8 mph 19.6 mph N/A   Clear
7:56 PM 78.8 °F - 28.4 °F 16% 30.18 in 10.0 mi SW 6.9 mph - N/A   Clear
8:51 PM 75.2 °F - 30.2 °F 19% 30.19 in 10.0 mi Calm Calm - N/A   Clear
8:55 PM 73.4 °F - 30.2 °F 20% 30.19 in 10.0 mi Calm Calm - N/A   Clear
9:15 PM 69.8 °F - 32.0 °F 25% 30.20 in 10.0 mi Calm Calm - N/A   Clear
9:55 PM 68.0 °F - 28.4 °F 23% 30.21 in 10.0 mi Calm Calm - N/A   Clear
10:15 PM 71.6 °F - 30.2 °F 22% 30.21 in 10.0 mi Calm Calm - N/A   Clear
10:35 PM 60.8 °F - 33.8 °F 36% 30.21 in 10.0 mi Calm Calm - N/A   Clear
11:35 PM 57.2 °F - 39.2 °F 51% 30.21 in 10.0 mi North 3.5 mph - N/A   Clear
11:55 PM 57.2 °F - 37.4 °F 48% 30.20 in 10.0 mi WNW 4.6 mph - N/A   Clear